Home   Weather   Gitarama   Past weeks

Flag for Rwanda Past Weather in Gitarama, Rwanda — Yesterday and Last 2 Weeks

Now
66 °F

Passing clouds.


Feels Like: 66 °F
Forecast: 61 / 73 °F
Wind: No wind

Location: Kigali Airport

Current Time: Apr 28, 2017 at 4:56:22 am

Latest Report: Apr 28, 2017 at 4:30 am


Visibility: N/A

Pressure: 30.15 "Hg (24.22 "Hg at 1872m altitude)

Humidity: 83%

Dew Point: 61 °F

Location of GitaramaLocation

Past Weather in Gitarama — Graph

°F

Gitarama Temperature Yesterday

Maximum temperature yesterday: 79 °F (at 1:00 pm)
Minimum temperature yesterday: 63 °F (at 3:00 am)
Average temperature yesterday: 70 °F

High & Low Weather Summary for the Past Weeks

 TemperatureHumidityPressure
High81 °F (Apr 19, 2:00 pm)100% (Apr 19, 11:00 pm)30.27 "Hg (Apr 19, 11:00 pm)
Low59 °F (Apr 26, 5:00 am)48% (Apr 19, 3:30 pm)29.98 "Hg (Apr 19, 3:30 pm)
Average68 °F80%30.12 "Hg
* Reported Apr 19 9:00 am — Apr 28 3:00 am, Gitarama, Weather by CustomWeather, © 2017

Note: Actual official high and low records may vary slightly from our data, if they occured in-between our weather recording intervals... More about our weather records

Advertising

Gitarama Weather History for the Previous 24 Hours

Scroll right to see more
 ConditionsComfort  
Time TempWeatherWind HumidityBarometerVisibility
3:00 am
Fri, Apr 28
66 °FPassing clouds.2 mph83%30.12 "HgN/A
2:00 am64 °FPassing clouds.3 mph88%30.15 "HgN/A
1:30 am66 °FPassing clouds.2 mph83%30.15 "HgN/A
1:00 am66 °FPassing clouds.3 mph83%30.15 "HgN/A
12:30 am68 °FPassing clouds.3 mph78%30.15 "HgN/A
12:00 am68 °FPassing clouds.5 mph78%30.18 "HgN/A
11:30 pm
Thu, Apr 27
68 °FPassing clouds.3 mph78%30.18 "HgN/A
11:00 pm68 °FPassing clouds.6 mph78%30.18 "HgN/A
10:30 pm70 °FPassing clouds.2 mph73%30.18 "HgN/A
10:00 pm70 °FPassing clouds.2 mph73%30.18 "HgN/A
9:30 pm70 °FPassing clouds.3 mph73%30.18 "HgN/A
9:00 pm70 °FPassing clouds.2 mph73%30.18 "HgN/A
8:30 pm68 °FPassing clouds.5 mph78%30.15 "HgN/A
8:00 pm70 °FPassing clouds.8 mph78%30.12 "HgN/A
7:30 pm73 °FPassing clouds.2 mph65%30.12 "HgN/A
7:00 pm73 °FPassing clouds.6 mph65%30.12 "HgN/A
6:30 pm73 °FPassing clouds.6 mph61%30.09 "HgN/A
6:00 pm73 °FPassing clouds.5 mph65%30.09 "HgN/A
5:30 pm75 °FScattered clouds.6 mph61%30.09 "HgN/A
5:00 pm77 °FScattered clouds.6 mph54%30.09 "HgN/A
4:30 pm77 °FScattered clouds.7 mph54%30.09 "HgN/A
4:00 pm79 °FScattered clouds.7 mph54%30.09 "HgN/A
3:30 pm79 °FScattered clouds.6 mph54%30.09 "HgN/A
2:30 pm79 °FScattered clouds.7 mph58%30.12 "HgN/A
2:00 pm79 °FScattered clouds.6 mph54%30.12 "HgN/A
1:00 pm79 °FScattered clouds.9 mph58%30.15 "HgN/A
12:00 pm75 °FScattered clouds.10 mph61%30.18 "HgN/A
11:30 am75 °FScattered clouds.6 mph61%30.21 "HgN/A
10:00 am72 °FPartly sunny.6 mph73%30.21 "HgN/A
9:30 am73 °FPartly sunny.6 mph69%30.21 "HgN/A
9:00 am70 °FScattered clouds.6 mph78%30.24 "HgN/A
8:30 am68 °FPassing clouds.5 mph78%30.21 "HgN/A
8:00 am68 °FPassing clouds.2 mph83%30.18 "HgN/A
7:00 am64 °FScattered clouds.2 mph88%30.18 "HgN/A
6:30 am63 °FScattered clouds.2 mph94%30.15 "HgN/A
5:30 am63 °FPassing clouds.2 mph94%30.12 "HgN/A
4:30 am63 °FMild.3 mph94%30.12 "HgN/A
Weather by CustomWeather, © 2017

See weather overviewHow to use our weather pages